カタログに戻る

STARLINK-2407

運用中通信VLEO
NORAD 47822·PAYLOAD·🇺🇸 United States

打ち上げ Mar 11, 2021 から Cape Canaveral Space Force Station

Loading…

次のパス (今後24時間)

TLE

最新Source: CelesTrak SupGP

元期: Sep 14, 2026, 21:18 UTC

1 47822C 21018AM  26257.88798611  .00009741  00000+0  31337-3 0  2572
2 47822  53.1580  94.8044 0001233  91.7720  29.1240 15.31682522    15

AllMySatでSTARLINK-2407をリアルタイム追跡

Download on the App Store